Location: Hains Lake
(37.8540°N, 99.8578°W)
Time: 19:47:18
(UTC+00:00)

Vanguard 1 - Pass Details

Date: 23 April 2021
Orbit: 649 x 3834 km, 34.2° (Epoch: 04 May)

Event Time Altitude Azimuth Distance (km) Brightness Sun altitude
Rises 02:21:47 0° 286° (WNW) 7,448 16.5 -11.8°
Reaches altitude 10° 02:26:56 10° 280° (W) 6,672 15.6 -12.7°
Maximum altitude 02:47:16 42° 220° (SW) 4,719 13.5 -16.2°
Enters shadow 03:04:53 11° 158° (SSE) 5,847 13.5 -19.1°
